SCP
0 0 0 0 0 0 0 0 0 0 0 0 0 0 0 0 0 0 0 0 0 0
0 0 0 0 0 0 0 0 0 0 0 0 0 0 0 0 0 0 0 0 0 0
0 0 0 0 0 0 0 0 0 0 0 0 0 0 0 0 0 0 0 0 0 0
0 0 0 0 0 0 0 0 0 0 0 0 0 0 0 0 0 0 0 0 0 0
0 0 0 0 0 0 0 0 0 0 0 0 0 0 0 0 0 0 0 0 0 0
0 0 0 0 0 0 0 0 0 0 0 0 0 0 0 0 0 0 0 0 0 0
0 0 0 0 0 0 0 0 0 0 0 0 0 0 0 0 0 0 0 0 0 0
0 0 0 0 0 0 0 0 0 0 0 0 0 0 0 0 0 0 0 0 0 0
0 0 0 0 0 0 0 0 0 0 0 0 0 0 0 0 0 0 0 0 0 0
0 0 0 0 0 0 0 0 0 0 0 0 0 0 0 0 0 0 0 0 0 0
0 0 0 0 0 0 0 0 0 0 0 0 0 0 0 0 0 0 0 0 0 0
0 0 0 0 0 0 0 0 0 0 0 0 0 0 0 0 0 0 0 0 0 0
0 0 0 0 0 0 0 0 0 0 0 0 0 0 0 0 0 0 0 0 0 0
0 0 0 0 0 0 0 0 0 0 0 0 0 0 0 0 0 0 0 0 0 0
Wind_Speed_500mb
40 36 30 22 17 14 10 7 2 0 3 7 12 16 20 22 24 24 25 25 27 29
40 33 26 21 17 14 12 9 7 5 3 7 10 15 19 22 23 23 25 28 30 34
39 34 28 23 20 18 16 14 10 6 3 7 12 17 21 23 24 25 29 32 35 37
39 34 30 26 26 25 21 16 9 3 5 11 17 22 23 24 27 30 33 35 37 38
42 38 34 33 30 26 21 15 9 5 8 14 18 20 22 25 29 32 35 37 39 42
45 43 40 37 33 28 22 17 12 11 13 15 18 22 24 28 32 37 39 41 43 45
50 47 43 38 35 31 26 21 20 17 18 21 23 24 25 29 33 37 41 44 46 49
53 50 47 44 40 34 32 28 26 23 25 28 29 30 31 33 35 38 42 47 49 52
58 55 52 48 44 40 37 34 32 31 33 35 37 37 36 37 40 43 47 51 52 53
61 58 57 54 50 47 42 38 38 37 40 42 44 42 42 44 47 51 53 54 54 56
63 61 59 57 54 49 47 44 42 43 46 48 47 47 47 50 53 56 56 56 56 58
63 62 61 59 57 53 49 47 46 45 47 50 48 48 50 54 57 58 59 57 57 58
58 58 57 55 56 52 51 51 50 48 49 49 48 50 53 55 58 62 62 60 60 58
48 50 51 52 53 53 55 57 57 56 53 52 52 52 54 55 60 62 63 63 62 58
Wind_Direction_500mb
174 175 173 169 165 161 155 150 123 339 360 360 360 355 351 347 347 349 344 346 344 340
181 182 180 176 175 179 185 195 199 232 307 343 356 354 350 345 341 342 341 342 339 338
183 185 187 187 189 197 203 202 205 221 307 347 353 351 348 341 339 339 338 337 338 336
192 192 194 198 204 205 201 200 203 230 319 342 349 343 338 335 332 332 332 333 333 333
199 201 203 208 206 203 204 205 211 250 309 325 329 332 331 329 326 328 328 328 327 328
205 207 209 210 208 207 211 215 230 259 286 311 318 318 323 324 324 325 322 320 320 322
214 213 214 214 213 216 219 228 240 256 283 293 300 302 308 314 320 322 318 314 314 316
217 216 218 218 218 221 228 236 246 260 276 283 285 289 294 303 310 314 314 311 309 309
220 220 222 223 224 228 233 242 252 265 276 281 281 283 288 294 301 307 311 310 307 306
225 225 226 227 229 234 239 248 260 272 279 281 279 281 284 289 298 304 307 306 305 305
229 228 229 232 234 238 246 256 267 276 280 280 280 280 283 288 294 300 304 303 302 303
230 231 232 234 237 243 252 262 271 276 279 281 280 279 281 285 292 298 302 301 300 300
232 234 236 239 242 250 258 264 265 270 275 279 280 277 279 285 293 298 298 297 297 297
232 235 239 243 247 254 259 261 263 266 271 276 279 278 279 285 290 294 293 291 292 293
Wind_Speed_850mb
40 36 30 22 17 14 10 7 2 0 3 7 12 16 20 22 24 24 25 25 27 29
40 33 26 21 17 14 12 9 7 5 3 7 10 15 19 22 23 23 25 28 30 34
39 34 28 23 20 18 16 14 10 6 3 7 12 17 21 23 24 25 29 32 35 37
39 34 30 26 26 25 21 16 9 3 5 11 17 22 23 24 27 30 33 35 37 38
42 38 34 33 30 26 21 15 9 5 8 14 18 20 22 25 29 32 35 37 39 42
45 43 40 37 33 28 22 17 12 11 13 15 18 22 24 28 32 37 39 41 43 45
50 47 43 38 35 31 26 21 20 17 18 21 23 24 25 29 33 37 41 44 46 49
53 50 47 44 40 34 32 28 26 23 25 28 29 30 31 33 35 38 42 47 49 52
58 55 52 48 44 40 37 34 32 31 33 35 37 37 36 37 40 43 47 51 52 53
61 58 57 54 50 47 42 38 38 37 40 42 44 42 42 44 47 51 53 54 54 56
63 61 59 57 54 49 47 44 42 43 46 48 47 47 47 50 53 56 56 56 56 58
63 62 61 59 57 53 49 47 46 45 47 50 48 48 50 54 57 58 59 57 57 58
58 58 57 55 56 52 51 51 50 48 49 49 48 50 53 55 58 62 62 60 60 58
48 50 51 52 53 53 55 57 57 56 53 52 52 52 54 55 60 62 63 63 62 58
Wind_Direction_850mb
174 175 173 169 165 161 155 150 123 339 360 360 360 355 351 347 347 349 344 346 344 340
181 182 180 176 175 179 185 195 199 232 307 343 356 354 350 345 341 342 341 342 339 338
183 185 187 187 189 197 203 202 205 221 307 347 353 351 348 341 339 339 338 337 338 336
192 192 194 198 204 205 201 200 203 230 319 342 349 343 338 335 332 332 332 333 333 333
199 201 203 208 206 203 204 205 211 250 309 325 329 332 331 329 326 328 328 328 327 328
205 207 209 210 208 207 211 215 230 259 286 311 318 318 323 324 324 325 322 320 320 322
214 213 214 214 213 216 219 228 240 256 283 293 300 302 308 314 320 322 318 314 314 316
217 216 218 218 218 221 228 236 246 260 276 283 285 289 294 303 310 314 314 311 309 309
220 220 222 223 224 228 233 242 252 265 276 281 281 283 288 294 301 307 311 310 307 306
225 225 226 227 229 234 239 248 260 272 279 281 279 281 284 289 298 304 307 306 305 305
229 228 229 232 234 238 246 256 267 276 280 280 280 280 283 288 294 300 304 303 302 303
230 231 232 234 237 243 252 262 271 276 279 281 280 279 281 285 292 298 302 301 300 300
232 234 236 239 242 250 258 264 265 270 275 279 280 277 279 285 293 298 298 297 297 297
232 235 239 243 247 254 259 261 263 266 271 276 279 278 279 285 290 294 293 291 292 293